Weather History for Soldotna, AK

Change the Weather History Date:

Saturday, July 2, 2011

  Actual Average Record
Temperature  
Mean Temperature 52 °F -  
Max Temperature 55 °F 60 °F 79 °F (1989)
Min Temperature 46 °F 46 °F 36 °F (1960)
Degree Days  
Heating Degree Days 14    
Growing Degree Days 2 (Base 50)    
Moisture  
Dew Point 46 °F    
Average Humidity 81    
Maximum Humidity 88    
Minimum Humidity 71    
Precipitation  
Precipitation 0.00 in - - ()
Sea Level Pressure  
Sea Level Pressure 29.64 in    
Wind  
Wind Speed 2 mph (WSW)    
Max Wind Speed 8 mph    
Max Gust Speed -    
Visibility 10 miles    
Events      
Averages and records for this station are not official NWS values.
T = Trace of Precipitation, MM = Missing Value Source: NWS Daily Summary

Daily Weather History Graph

Daily Weather History Graph

Search for Another Location

Airport:

Trip Planner

Search our weather history database for the weather conditions in past years. The results will help you decide how hot, cold, wet, or windy it might be!

Date:

Astronomy

Jul. 02, 2011 Rise Set
Actual Time 4:42 AM AKDT 11:33 PM AKDT
Civil Twilight 2:52 AM AKDT 1:21 AM AKDT
Nautical Twilight Sun does not rise Sun does not rise
Astronomical Twilight Sun does not rise Sun does not rise
Moon 6:53 AM AKDT 11:44 PM AKDT
Length of Visible Light 22h 28m
Length of Day
18h 51m
Waxing Crescent, 3% of the Moon is Illuminated
Jul 2
Waxing Crescent
Jul 7
First Quarter
Jul 14
Full
Jul 22
Last Quarter
Jul 30
New

Hourly Weather History & Observations

Time (AKDT) Temp. Windchill Dew Point Humidity Pressure Visibility Wind Dir Wind Speed Gust Speed Precip Events Conditions
12:56 AM 51.8 °F - 42.8 °F 71% 29.64 in 10.0 mi ESE 3.5 mph - N/A   Overcast
1:56 AM 51.8 °F - 44.6 °F 76% 29.64 in 10.0 mi Calm Calm - N/A   Overcast
2:56 AM 51.8 °F - 44.6 °F 76% 29.62 in 10.0 mi South 4.6 mph - N/A   Overcast
3:56 AM 50.0 °F - 44.6 °F 82% 29.62 in 10.0 mi Calm Calm - N/A   Overcast
5:56 AM 50.0 °F - 44.6 °F 82% 29.60 in 10.0 mi Calm Calm - N/A   Overcast
6:56 AM 50.0 °F - 44.6 °F 82% 29.60 in 10.0 mi ESE 3.5 mph - N/A   Overcast
7:56 AM 50.0 °F - 46.4 °F 87% 29.60 in 10.0 mi Calm Calm - N/A   Overcast
8:56 AM 50.0 °F - 46.4 °F 87% 29.61 in 5.0 mi Calm Calm - N/A   Overcast
9:56 AM 50.0 °F - 46.4 °F 87% 29.61 in 6.0 mi Calm Calm - N/A   Overcast
10:56 AM 51.8 °F - 46.4 °F 82% 29.61 in 10.0 mi Calm Calm - N/A   Mostly Cloudy
11:56 AM 51.8 °F - 46.4 °F 82% 29.62 in 10.0 mi Calm Calm - N/A   Overcast
12:56 PM 53.6 °F - 46.4 °F 77% 29.63 in 10.0 mi Calm Calm - N/A   Overcast
1:56 PM 53.6 °F - 46.4 °F 77% 29.63 in 10.0 mi Calm Calm - N/A   Overcast
2:56 PM 53.6 °F - 48.2 °F 82% 29.64 in 10.0 mi West 6.9 mph - N/A   Overcast
3:56 PM 53.6 °F - 48.2 °F 82% 29.64 in 10.0 mi WNW 4.6 mph - N/A   Overcast
4:56 PM 55.4 °F - 48.2 °F 77% 29.65 in 10.0 mi Calm Calm - N/A   Overcast
5:56 PM 51.8 °F - 48.2 °F 88% 29.66 in 8.0 mi West 8.1 mph - N/A   Overcast
6:56 PM 53.6 °F - 46.4 °F 77% 29.66 in 10.0 mi West 4.6 mph - N/A   Overcast
7:56 PM 53.6 °F - 46.4 °F 77% 29.67 in 10.0 mi West 6.9 mph - N/A   Overcast
8:56 PM 51.8 °F - 46.4 °F 82% 29.67 in 10.0 mi West 6.9 mph - N/A   Overcast
9:56 PM 50.0 °F - 44.6 °F 82% 29.68 in 10.0 mi WSW 4.6 mph - N/A   Overcast
10:56 PM 48.2 °F - 44.6 °F 87% 29.69 in 10.0 mi WSW 3.5 mph - N/A   Overcast
11:56 PM 46.4 °F 45.2 °F 42.8 °F 87% 29.70 in 10.0 mi SW 3.5 mph - N/A   Partly Cloudy